Weather History for Enid, OK

Change the Weather History Date:

Sunday, May 19, 2013

  Actual Average Record
Temperature  
Mean Temperature 74 °F -  
Max Temperature 86 °F 78 °F 98 °F (2006)
Min Temperature 62 °F 57 °F 51 °F (2002)
Cooling Degree Days 9    
Growing Degree Days 24 (Base 50)    
Moisture  
Dew Point 64 °F    
Average Humidity 87    
Maximum Humidity 94    
Minimum Humidity 58    
Precipitation  
Precipitation 1.22 in - - ()
Sea Level Pressure  
Sea Level Pressure 29.67 in    
Wind  
Wind Speed 12 mph (SE)    
Max Wind Speed 26 mph    
Max Gust Speed 33 mph    
Visibility 9 miles    
Events Rain , Thunderstorm    
Averages and records for this station are not official NWS values.
T = Trace of Precipitation, MM = Missing Value Source: NWS Daily Summary

Daily Weather History Graph

Daily Weather History Graph

Search for Another Location

Airport:

Trip Planner

Search our weather history database for the weather conditions in past years. The results will help you decide how hot, cold, wet, or windy it might be!

Date:

Astronomy

May. 19, 2013 Rise Set
Actual Time 6:21 AM CDT 8:34 PM CDT
Civil Twilight 5:52 AM CDT 9:03 PM CDT
Nautical Twilight 5:16 AM CDT 9:39 PM CDT
Astronomical Twilight 4:38 AM CDT 10:17 PM CDT
Moon 2:49 PM CDT (5/19) 2:35 AM CDT (5/19)
Length of Visible Light 15h 11m
Length of Day
14h 13m
Waxing Gibbous, 65% of the Moon is Illuminated
May 19
Waxing Gibbous
May 24
Full
May 31
Last Quarter
Jun 8
New
Jun 16
First Quarter

Hourly Weather History & Observations

Time (CDT) Temp. Heat Index Dew Point Humidity Pressure Visibility Wind Dir Wind Speed Gust Speed Precip Events Conditions
12:15 AM 66.2 °F - 60.8 °F 83% 29.76 in 10.0 mi South 17.3 mph 26.5 mph N/A Rain , Thunderstorm Light Thunderstorms and Rain
12:35 AM 64.4 °F - 60.8 °F 88% 29.71 in 10.0 mi SSE 18.4 mph 24.2 mph N/A Rain , Thunderstorm Light Thunderstorms and Rain
12:55 AM 64.4 °F - 60.8 °F 88% 29.65 in 10.0 mi ENE 10.4 mph 18.4 mph 0.01 in Rain Light Rain
1:15 AM 68.0 °F - 60.8 °F 78% 29.65 in 10.0 mi NE 8.1 mph 23.0 mph N/A Rain , Thunderstorm Light Thunderstorms and Rain
1:35 AM 68.0 °F - 60.8 °F 78% 29.67 in 10.0 mi East 10.4 mph - 0.01 in Rain , Thunderstorm Thunderstorms and Rain
1:55 AM 66.2 °F - 60.8 °F 83% 29.70 in 10.0 mi SW 11.5 mph - 0.02 in Rain , Thunderstorm Light Thunderstorms and Rain
2:15 AM 64.4 °F - 60.8 °F 88% 29.74 in 4.0 mi WSW 10.4 mph - 0.19 in Rain , Thunderstorm Heavy Thunderstorms and Rain
2:35 AM 62.6 °F - 60.8 °F 94% 29.75 in 5.0 mi South 10.4 mph 17.3 mph 0.30 in Rain , Thunderstorm Heavy Thunderstorms and Rain
2:55 AM 62.6 °F - 60.8 °F 94% 29.77 in 4.0 mi South 9.2 mph - 0.43 in Rain , Thunderstorm Heavy Thunderstorms and Rain
3:15 AM 62.6 °F - 60.8 °F 94% 29.71 in 5.0 mi ENE 10.4 mph - 0.20 in Rain , Thunderstorm Thunderstorms and Rain
3:35 AM 62.6 °F - 60.8 °F 94% 29.76 in 1.2 mi SE 9.2 mph - 0.59 in Rain , Thunderstorm Heavy Thunderstorms and Rain
3:55 AM 62.6 °F - 60.8 °F 94% 29.70 in 10.0 mi East 13.8 mph 18.4 mph 0.76 in Rain , Thunderstorm Light Thunderstorms and Rain
4:15 AM 62.6 °F - 60.8 °F 94% 29.70 in 10.0 mi East 13.8 mph - N/A   Scattered Clouds
4:35 AM 62.6 °F - 60.8 °F 94% 29.70 in 10.0 mi East 10.4 mph - N/A   Scattered Clouds
4:55 AM 62.6 °F - 60.8 °F 94% 29.69 in 10.0 mi East 11.5 mph - N/A   Scattered Clouds
5:15 AM 62.6 °F - 60.8 °F 94% 29.68 in 10.0 mi East 11.5 mph 17.3 mph N/A   Mostly Cloudy
5:35 AM 64.4 °F - 60.8 °F 88% 29.68 in 10.0 mi East 12.7 mph - N/A   Mostly Cloudy
5:55 AM 64.4 °F - 60.8 °F 88% 29.68 in 10.0 mi East 11.5 mph - N/A   Overcast
6:17 AM 66.2 °F - 60.8 °F 83% 29.69 in 10.0 mi NE 11.5 mph - N/A   Overcast
8:55 AM 66.2 °F - 64.4 °F 94% 29.67 in 10.0 mi East 13.8 mph - N/A   Overcast
9:50 AM 71.6 °F - 68.0 °F 88% 29.65 in 10.0 mi SE 11.5 mph 18.4 mph N/A   Scattered Clouds
10:50 AM 78.8 °F - 69.8 °F 74% 29.63 in 10.0 mi SSE 16.1 mph 25.3 mph N/A   Mostly Cloudy
11:50 AM 82.4 °F 87.2 °F 71.6 °F 70% 29.61 in 10.0 mi South 19.6 mph 25.3 mph N/A   Mostly Cloudy
12:50 PM 84.2 °F 88.4 °F 69.8 °F 62% 29.60 in 10.0 mi South 20.7 mph 28.8 mph N/A   Mostly Cloudy
4:50 PM 86.0 °F 90.4 °F 69.8 °F 58% 29.50 in 7.0 mi South 26.5 mph 33.4 mph N/A   Mostly Cloudy
8:50 PM 73.4 °F - 68.0 °F 83% 29.62 in 7.0 mi SE 10.4 mph - N/A   Scattered Clouds
9:15 PM 71.6 °F - 68.0 °F 88% 29.62 in 10.0 mi SE 6.9 mph - N/A Thunderstorm Clear
9:35 PM 69.8 °F - 68.0 °F 94% 29.62 in 10.0 mi SSE 6.9 mph - N/A Thunderstorm Clear
9:55 PM 69.8 °F - 68.0 °F 94% 29.62 in 10.0 mi SSE 9.2 mph - N/A   Clear
10:15 PM 69.8 °F - 66.2 °F 88% 29.62 in 10.0 mi South 3.5 mph - N/A Thunderstorm Clear
10:35 PM 68.0 °F - 64.4 °F 88% 29.62 in 10.0 mi SE 6.9 mph - N/A   Clear
11:15 PM 68.0 °F - 66.2 °F 94% 29.63 in 10.0 mi SSE 5.8 mph - N/A   Clear
11:35 PM 68.0 °F - 66.2 °F 94% 29.65 in 10.0 mi Calm Calm - N/A   Clear
11:55 PM 68.0 °F - 64.4 °F 88% 29.65 in 7.0 mi Calm Calm - N/A   Clear